Location: Navalespino
(40.5894°N, 4.2660°W)
Time: 05:42:01
(UTC+00:00)

Atlas Centaur 2 - Pass Details

Date: 18 April 2024
Orbit: 458 x 1278 km, 30.4° (Epoch: 22 May)

Event Time Altitude Azimuth Distance (km) Brightness Sun altitude
Rises 19:26:09 0° 227° (SW) 3,565 5.8 -5.6°
Reaches altitude 10° 19:29:46 10° 210° (SSW) 2,442 4.7 -6.2°
Maximum altitude 19:33:34 18° 169° (SSE) 1,748 3.6 -6.9°
Drops below altitude 10° 19:36:54 10° 125° (SE) 2,078 3.6 -7.5°
Enters shadow 19:37:14 - 122° (ESE) 2,154 3.7 -7.5°
